STARLINK-34645, 64766

Orbit data source: Space-Track

STARLINK-34645, 64766 is a payload satellite owned by SpaceX/Seattle (US) in LEO that was launched on Tue, 08 Jul 2025 UTC via an FALCON 9 launch vehicle from the Air Force Eastern Test Range (AFETR). Payload-class satellites include a variety of spacecraft equipped with specific instruments for various scientific and technological missions. These include communications satellites like Starlink; space stations such as the ISS; scientific satellites like the Hubble; Earth observation satellites from companies like Planet Labs, Umbra, and HawkEye 360; GPS; miniature CubeSats for education and research; and military/defense satellites.

Loading next visibility...
Identifier
64766, 2025-147M
Orbit
LEO
Country
Flag of USUS
Related business
Manufacturer
SpaceX/Seattle
Mission
Operational spacecraft
Bus & Motor
STARLINK V2MO, Unknown motor
Mass
575 kg wet, ~530 kg dry
Launch date (UTC)
2025-07-08 (2 months ago)
Launch vehicle
FALCON 9
Launch site
Air Force Eastern Test Range (AFETR)
Object type
Payload
Rocket body
Debris
Shape & HBR
Unknown
Radar Cross Section
Large (>1 m²)

Expand to show TLE details & history
Last TLE update: 16 hours ago

TLE from 16 hours ago
0 STARLINK-34645
1 64766U 25147M   25242.77723002  .00068190  00000-0  16987-2 0  9998
2 64766  53.1602  50.8423 0000670 110.8052 249.3025 15.39634711  9509
Epoch: 2025-08-30T18:39Z
TLE epoch observation values (Epoch: 2025-08-30T18:39:12.673Z)
Latitude
-0.00001°
Longitude
151.83283°
Altitude
448.254 km
Speed
7.644 km/s
True Right ascension
03h 23m 22s
True Declination
0° 00' 00"
Sunlit
Object was in daylight at epoch
Visualization orbit readout
Latitude
Unknown
Longitude
Unknown
Altitude
Unknown
Speed
Unknown
Apparent Right ascension
Unknown
Apparent Declination
Unknown
Sunlit
N/A
Visualization observer readout
Local Sidereal Time
02:25:58
Azimuth
Unknown
Elevation
Unknown
Doppler factor
Unknown
Orbital elements
Apogee altitude
447.903 km
Perigee altitude
446.989 km
Semi-major axis
6,825.583 km
Eccentricity
0.00007
Inclination
53.1602°
RAAN
50.8423°
Arg. of periapsis
110.8052°
True anomaly
249.29532°
Mean anomaly
249.3025°
Eccentric anomaly
249.29891°
Mean motion
3.84887 °/min
Orbital period
93.53 mins
BSTAR
0.0016987
Loading maneuver chart data...
Computing Atmospheric mass density...
Loading historical data...
Loading historical data...
Loading historical data...
Loading historical data...
Loading historical data...
Loading historical data...
Loading historical data...

Documentation

Showing up to 5 results
|